www.pogodaiklimat.ru
ПОГОДА в Халдии

Архив погоды в Халдии (Западная Бенгалия, Индия)

Время
(UTC), дата
18 28.06
21 28.06
00 29.06
03 29.06
06 29.06
09 29.06
12 29.06
15 29.06
18 29.06
21 29.06
00 30.06
03 30.06
06 30.06
09 30.06
12 30.06
15 30.06
18 30.06
21 30.06
00 1.07
03 1.07
06 1.07
09 1.07
12 1.07
15 1.07
18 1.07
21 1.07
00 2.07
03 2.07
06 2.07
09 2.07
12 2.07
15 2.07
18 2.07
21 2.07
00 3.07
03 3.07
06 3.07
09 3.07
12 3.07
15 3.07
18 3.07
21 3.07
00 4.07
06 4.07
09 4.07
12 4.07
15 4.07
18 4.07
21 4.07
00 5.07
03 5.07
06 5.07
09 5.07
12 5.07
15 5.07
Ветер
(напр.,м/с)
Видим. Явления Облачность Т
(С)
Тd
(С)
f
(%)
Тe
(С)
Тes
(С)
Комфортность P
(гПа)
Po
(гПа)
Тmin
(С)
Tmax
(С)
R
(мм)
R24
(мм)
S
(см)
Ю 1 4000 м 5/4 300 м
[Sc Ci fib]
1002.8 1001.8
штиль 0 4000 м 5/4 300 м
[Sc]
1001.9 1000.9
штиль 0 4000 м 5/3 600 м
[Sc Ci fib]
+28.4 +26.7 91 +44 +45 опасность
перегрева
1001.7 1000.8
Ю 1 4000 м 5/3 300 м
[Sc diur, vesp Ac trans Ci fib]
+31.0 +26.6 77 +47 +56 опасность
перегрева
1001.8 1000.9 +28.3
Ю 1 4000 м 8/3 300 м
[Sc diur, vesp Ac trans Cs]
+33.0 +25.7 66 +48 +61 опасность
перегрева
1001.8 1000.9
Ю 1 4000 м 9/5 300 м
[Sc diur, vesp As trans Ci fib]
+32.8 +26.7 70 +50 +55 опасность
перегрева
999.7 998.8
Ю 1 4000 м {дождь} 9/5 300 м
[Sc diur, vesp Ac As]
+30.6 +26.7 80 +48 +48 опасность
перегрева
999.9 999.0 +34.5 2
Ю 1 4000 м 6/5 300 м
[Sc diur, vesp Ac trans]
+29.4 +26.3 83 +45 +45 опасность
перегрева
1001.4 1000.5 2
Ю 1 4000 м 6/4 300 м
[Sc diur, vesp Ac trans]
1001.6 1000.6 2
Ю 1 4000 м 6/4 300 м
[Sc Ac As]
1000.8 999.8 2
штиль 0 4000 м слаб. дождь 9/5 300 м
[Sc diur, vesp Ac As]
+27.2 +26.4 95 +41 +41 опасность
перегрева
1000.3 999.4 2
ЮЗ 1 4000 м гроза без осадков {дождь} 9/5 300 м
[Cb calv Ac As]
+27.0 +26.2 95 +41 +44 опасность
перегрева
1002.0 1001.1 +26.0 15
ЮЗ 1 4000 м {гроза, дождь} 9/5 300 м
[Sc diur, vesp Ac As]
+30.8 +26.6 78 +47 +53 опасность
перегрева
1001.1 1000.2
Ю 1 4000 м 9/4 300 м
[Sc diur, vesp Ac As]
+31.0 +26.3 76 +47 +51 опасность
перегрева
999.5 998.6
ЮЗ 1 4000 м 9/5 300 м
[Sc diur, vesp Ac As]
+31.0 +27.4 81 +49 +50 опасность
перегрева
999.1 998.2 +31.4
Ю 1 4000 м 6/4 300 м
[St Ac As]
+29.6 +27.1 86 +47 +47 опасность
перегрева
1000.7 999.8
Ю 1 4000 м 6/4 300 м
[St Ac As]
1000.9 999.9
Ю 1 4000 м 6/4 300 м
[St Ac As]
999.8 998.8
штиль 0 4000 м 6/3 300 м
[Sc diur, vesp Ac As]
+28.6 +26.9 91 +45 +45 опасность
перегрева
1000.0 999.1
штиль 0 4000 м 10/5 300 м
[Sc diur, vesp As trans]
+30.0 +27.5 86 +48 +51 опасность
перегрева
1001.2 1000.3 +28.4 2
штиль 0 4000 м 10/5 300 м
[Sc diur, vesp As trans]
+31.2 +26.8 78 +49 +55 опасность
перегрева
1000.7 999.8
штиль 0 4000 м 10/5 300 м
[Sc diur, vesp As trans]
+31.4 +27.0 78 +49 +53 опасность
перегрева
998.8 997.9
З 1 4000 м в посл. час гроза 10/5 300 м
[Cb calv As trans]
+30.0 +26.9 84 +47 +47 опасность
перегрева
998.6 997.7 +32.4
штиль 0 4000 м 8/4 300 м
[Sc As trans]
+29.0 +27.6 92 +47 +47 опасность
перегрева
1000.1 999.2
штиль 0 4000 м 6/3 600 м
[Sc Ci fib]
+28.6 +27.2 92 +45 +45 опасность
перегрева
1000.6 999.7
штиль 0 4000 м 6/3 600 м
[Sc As trans]
+28.5 +27.2 93 +20 +20 999.3 998.3
штиль 0 4000 м 8/1 600 м
[Sc As trans]
+28.4 +27.3 94 +45 +46 опасность
перегрева
999.8 998.9
штиль 0 4000 м слаб. дождь 10/3 200 м
[Frnb As op]
+28.0 +27.2 95 +44 +46 опасность
перегрева
999.7 998.8 +27.3
штиль 0 4000 м {дождь} 9/4 300 м
[Sc diur, vesp Ac As]
+30.0 +26.9 84 +47 +55 опасность
перегрева
998.7 997.8 7
штиль 0 4000 м гроза без осадков {дождь} 9/3 300 м
[Cb cap Ac As]
+31.0 +26.8 78 +48 +53 опасность
перегрева
996.9 996.0 7
штиль 0 4000 м {гроза, дождь} 10/5 300 м
[Sc diur, vesp As op]
+30.4 +26.8 81 +47 +47 опасность
перегрева
996.7 995.8 +32.4 7
штиль 0 4000 м гроза, ливневой дождь 10/4 300 м
[Cb cap As op]
+28.2 +27.9 98 +46 +46 опасность
перегрева
998.9 998.0 18
штиль 0 4000 м {гроза, дождь} 9/4 200 м
[Frnb Ac As]
1000.0 999.0 19
штиль 0 4000 м {дождь} 8/4 200 м
[Frnb Ac As]
998.9 997.9 20
штиль 0 4000 м 9/4 300 м
[Sc Ac As]
+27.8 +27.2 97 +44 +44 опасность
перегрева
998.2 997.3 21
Ю 1 4000 м {дождь} 9/4 300 м
[Sc diur, vesp Ac As]
+29.0 +27.3 91 +47 +50 опасность
перегрева
1000.0 999.1 +25.6 38
ЮВ 1 4000 м {дождь} 10/5 300 м
[Sc diur, vesp As op]
+30.0 +27.2 85 +48 +50 опасность
перегрева
1000.2 999.3
штиль 0 4000 м 10/5 300 м
[Sc diur, vesp As trans]
+30.4 +26.8 81 +47 +51 опасность
перегрева
998.2 997.3
штиль 0 4000 м 8/4 300 м
[Sc diur, vesp Ac As]
+30.0 +26.7 83 +47 +47 опасность
перегрева
997.2 996.3 +30.8
штиль 0 4000 м 8/4 300 м
[Sc diur, vesp Ac As]
+29.0 +26.8 88 +45 +45 опасность
перегрева
999.5 998.6
штиль 0 4000 м 5/3 300 м
[Sc diur, vesp Ac As]
1000.3 999.3
штиль 0 4000 м 6/4 300 м
[Sc diur, vesp Ac As]
999.2 998.2
штиль 0 4000 м в посл. час дождь 8/4 300 м
[Sc diur, vesp Ac As]
+28.2 +26.8 92 +44 +44 опасность
перегрева
999.2 998.3 1
штиль 0 4000 м 8/4 300 м
[Sc diur, vesp Ac As]
+32.0 +26.7 74 +49 +59 опасность
перегрева
999.9 999.0
штиль 0 4000 м 6/4 300 м
[Sc diur, vesp Ac As]
+33.0 +26.9 70 +51 +59 опасность
перегрева
997.7 996.8
штиль 0 4000 м {гроза, дождь} 8/5 300 м
[Sc diur, vesp Ac As]
+30.0 +27.8 88 +49 +49 опасность
перегрева
996.8 995.9 +34.4 1
штиль 0 4000 м 5/3 600 м
[Sc Ac As]
+28.8 +27.4 92 +46 +46 опасность
перегрева
999.2 998.3 1
штиль 0 4000 м 4/1 600 м
[Sc Ac As]
999.8 998.8 1
штиль 0 4000 м 5/3 600 м
[Sc Ac As]
999.0 998.0 1
штиль 0 4000 м 8/3 300 м
[Sc diur, vesp Ac As]
+28.2 +27.1 94 +45 +45 опасность
перегрева
998.8 997.9 1
В 1 4000 м 9/6 300 м
[Sc diur, vesp Ac As]
+30.4 +27.1 83 +48 +51 опасность
перегрева
999.7 998.8 +27.3 1
штиль 0 4000 м 9/6 300 м
[Sc diur, vesp Ac As]
+32.8 +26.1 68 +49 +54 опасность
перегрева
998.5 997.6
СВ 1 4000 м {дождь} 9/5 300 м
[Sc diur, vesp Ac As]
+30.6 +27.6 84 +49 +53 опасность
перегрева
996.8 995.9 3
штиль 0 4000 м в посл. час дождь 9/4 300 м
[Sc diur, vesp Ac As]
+30.0 +27.8 88 +49 +49 опасность
перегрева
996.6 995.7 +33.9 3
штиль 0 4000 м 8/4 600 м
[Sc diur, vesp Ac As]
+29.0 +27.1 90 +46 +46 опасность
перегрева
999.3 998.4 3
Местоположение метеостанции Халдия (Западная Бенгалия, Индия): широта 22.04 долгота 88.04 высота над уровнем моря 8 м.
В архиве по умолчанию представлена погода в Халдии за последнюю неделю. Архивные данные за месяц целиком и за предыдущие месяцы, начиная с января 2011 года, Вы можете получить, выбрав интересующий диапазон дат из раскрывающегося списка и нажав кнопку "Найти!".
*Определитесь, кто Вы:
Внимание! Время в таблицах - всемирное. Для получения местного времени необходимо прибавить поправку, которая равна 5.5 ч.
Смотрите также архив погоды в соседних городах и на ближайших метеорологических станциях:
Партнеры нашего сайта:      
Пояснения к столбцам:
  • Ветер - указаны скорость ветра в м/с - средняя за 10 мин, порывы в срок и между сроками (в фигурных скобках) и направление, откуда дует ветер: С - северный,
  • СВ - северо-восточный, В - восточный, ЮВ - юго-восточный, Ю - южный, ЮЗ - юго-западный, З - западный, СЗ - северо-западный.
  • Видимость - горизонтальная дальность видимости в метрах или километрах. При видимости от 1 до 10 км при отсутствии осадков обычно наблюдается дымка, при ухудшении видимости до 1 км и менее - туман. В сухую погоду видимость может ухудшаться дымом, пылью или мглою.
  • Явления - указаны атмосферные явления, наблюдавшиеся в срок или в последний час перед сроком; фигурными скобками обозначены явления, наблюдавшиеся между сроками (за 1-3 часа до срока); квадратными скобками обозначены град или гололедные отложения с указанием их диаметра в мм.
  • Облачность - указаны через наклонную черту общая и нижняя облачность в баллах и высота нижней границы облаков в метрах; квадратными скобками обозначены формы облаков: Ci - перистые, Cs - перисто-слоистые, Cc - перисто-кучевые, Ac - высококучевые, As - высокослоистые, Sc - слоисто-кучевые, Ns - слоисто-дождевые, Cu - кучевые, Cb - кучево-дождевые. Подробнее классификацию облаков см. в Атласе облаков (PDF).
  • T - Температура воздуха - температура, измеренная на высоте 2 м над землей.
  • Td - Температура точки росы - температура, при понижении до которой содержащийся в воздухе водяной пар достигнет насыщения.
  • f - Относительная влажность воздуха - влажноcть воздуха, измеренная на высоте 2 м над землей.
  • Te - Эффективная температура - температура, которую ощущает одетый по сезону человек в тени. Характеристика душности погоды. При расчете учитывается влияние влажности воздуха и скорости ветра на теплоощущения человека.
  • Tes - Эффективная температура на солнце - температура, которую ощущает человек, с поправкой на солнечный нагрев. Характеристика знойности погоды. Зависит от высоты солнца над горизонтом, облачности и скорости ветра. Ночью, в пасмурную погоду, а также при ветре 12 м/с и более поправка равна нулю.
  • P - Атмосферное давление - приведенное к уровню моря атмосферное давление.
  • Po - Атмосферное давление - измеренное на уровне метеостанции атмосферное давление.
  • Tmin - Минимальная температура - минимум температуры воздуха на высоте 2 м над землей.
  • Tmax - Максимальная температура - максимум температуры воздуха на высоте 2 м над землей.
  • R - Количество осадков - Количество выпавших осадков за период времени, мм. При наведении курсора мыши на число - период времени, за который выпало указанное количество осадков.
  • R24 - Количество осадков - Количество выпавших осадков за 24 часа, мм.
  • S - Снежный покров - Высота снежного покрова, см. При наведении курсора мыши на число - состояние снежного покрова и степень покрытия местности в баллах.